This is the latest recevied weather packets stored in our database for station/object KO4IEJ. If no packets are shown the sender has not sent any weather packets the latest 10 day(s).
| Time | Temp. | Humidity | Pressure | Rain* | Wind** | Luminosity | Snow |
|---|---|---|---|---|---|---|---|
| 1778022060 | 1.11° C | 92% | 1011.4 hPa | 0 mm | - | - | - |
| 1778020258 | 1.11° C | 91% | 1011.3 hPa | 0.25 mm | - | - | - |
| 1778017557 | 1.11° C | 91% | 1011.2 hPa | 0.25 mm | - | - | - |
| 1778015754 | 1.11° C | 89% | 1011.7 hPa | 0.25 mm | - | - | - |
| 1778013954 | 2.22° C | 87% | 1011.9 hPa | 0 mm | - | - | - |
| 1778010356 | 7.22° C | 70% | 1011.4 hPa | 0 mm | - | - | - |
| 1778008561 | 8.89° C | 67% | 1011.1 hPa | 0 mm | - | - | - |
| 1777999554 | 6.11° C | 75% | 1013.1 hPa | 0 mm | - | - | - |
| 1777997768 | 5.56° C | 78% | 1013.3 hPa | 0 mm | - | - | - |
| 1777995961 | 5.56° C | 80% | 1013.4 hPa | 0 mm | - | - | - |
| 1777992355 | 4.44° C | 82% | 1013.8 hPa | 0 mm | - | - | - |
| 1777991452 | 4.44° C | 83% | 1014 hPa | 0 mm | - | - | - |
| 1777990552 | 4.44° C | 83% | 1014.1 hPa | 0 mm | - | - | - |
| 1777988759 | 4.44° C | 83% | 1014 hPa | 0 mm | - | - | - |
| 1777985151 | 2.22° C | 89% | 1013.6 hPa | 0 mm | - | - | - |
| 1777982455 | 1.11° C | 87% | 1013.5 hPa | 0 mm | - | - | - |
| 1777977053 | 2.22° C | 84% | 1013.4 hPa | 0 mm | - | - | - |
| 1777963558 | 4.44° C | 73% | 1014.2 hPa | 0 mm | - | - | - |
| 1777950055 | 8.89° C | 58% | 1013.4 hPa | 0 mm | - | - | - |
| 1777947355 | 9.44° C | 57% | 1012.8 hPa | 0 mm | - | - | - |
| 1777941048 | 12.78° C | 41% | 1012.1 hPa | 0 mm | - | - | - |
| 1777933856 | 14.44° C | 39% | 1012.1 hPa | 0 mm | - | - | - |
| 1777929354 | 14.44° C | 38% | 1013.3 hPa | 0 mm | - | - | - |
| 1777928463 | 13.89° C | 38% | 1013.8 hPa | 0 mm | - | - | - |
| 1777921259 | 12.22° C | 53% | 1014.9 hPa | 0 mm | - | - | - |
* Rain latest hour (hover to see other rain measurements)
** Current wind speed in m/s (hover to see current wind gust speed)